User: anonymous   Login
Location: Unspecified
(0.0000°N, 0.0000°E)
Time: 13:04:20
(UTC+02:00)
Language:

Cosmos 1315 Rocket - Orbit

View from above orbital plane
View from above orbital plane
View from above satellite
View from above satellite

Ground track
Ground track

The orbit data is extracted from the following two-line orbital elements,

1 12904U 81103B   17149.89801359 +.00000541 +00000-0 +35844-4 0  9992
2 12904 081.1768 296.4479 0029332 124.5757 235.8240 15.05275538489859
Epoch (UTC): 29 May 2017 21:33:08
Eccentricity: 0.0029332
inclination: 81.1768°
perigee height: 530 km
apogee height: 571 km
right ascension of ascending node: 296.4479°
argument of perigee: 124.5757°
revolutions per day: 15.05275538
mean anomaly at epoch: 235.8240°
orbit number at epoch: 48985

The dashed part of the orbit path shows where the satellite is in the earth's shadow,  

DLR